Location: Wanzleben
(52.0609°N, 11.4408°E)
Time: 19:07:17
(UTC+00:00)

Cosmos 1833 Rocket - Pass Details

Date: 18 September 2020
Orbit: 831 x 841 km, 71.0° (Epoch: 21 October)

Event Time Altitude Azimuth Distance (km) Brightness Sun altitude
Rises 19:58:51 0° 329° (NNW) 3,408 7.0 -23.4°
Reaches altitude 10° 20:01:21 10° 334° (NNW) 2,471 6.0 -23.7°
Maximum altitude 20:06:58 61° 54° (NE) 955 2.8 -24.4°
Enters shadow 20:07:41 56° 88° (E) 997 2.7 -24.5°
